DLH2PM LOWW-EDDF

Flight info

Callsign DLH2PM
Flight time 1h 0m
Altitude 32000
Route LUGEM2B/16 LUGEM DCT SUBEN T161 DEBHI DEBHI1B
Aircraft A20N/M-SDE2E3FGHIRWXY/LB1

Departure

Time 2026-05-04 18:43
Airport Vienna International Airport (LOWW)

Arrival

Time 2026-05-04 19:43
Airport Frankfurt Main Airport (EDDF)
Time Latitude Longitude Altitude Speed Heading
2026-05-04 18:17 48.11878 16.56820 608 ft 0 kts 206°
2026-05-04 18:34 48.11891 16.56830 609 ft 2 kts 206°
2026-05-04 18:34 48.11905 16.56840 609 ft 2 kts 206°
2026-05-04 18:35 48.11913 16.56846 609 ft 2 kts 206°
2026-05-04 18:35 48.11927 16.56851 609 ft 2 kts 178°
2026-05-04 18:35 48.11942 16.56847 609 ft 2 kts 156°
2026-05-04 18:35 48.11955 16.56835 609 ft 2 kts 134°
2026-05-04 18:36 48.11961 16.56823 609 ft 0 kts 118°
2026-05-04 18:36 48.11964 16.56813 609 ft 0 kts 116°
2026-05-04 18:36 48.11964 16.56814 609 ft 0 kts 116°
2026-05-04 18:38 48.11962 16.56819 609 ft 1 kts 116°
2026-05-04 18:38 48.11959 16.56827 609 ft 0 kts 116°
2026-05-04 18:39 48.11950 16.56854 609 ft 4 kts 116°
2026-05-04 18:39 48.11927 16.56918 609 ft 8 kts 118°
2026-05-04 18:39 48.11898 16.57008 609 ft 10 kts 116°
2026-05-04 18:39 48.11866 16.57105 609 ft 10 kts 116°
2026-05-04 18:40 48.11852 16.57206 609 ft 9 kts 92°
2026-05-04 18:40 48.11848 16.57305 609 ft 9 kts 56°
2026-05-04 18:40 48.11895 16.57307 609 ft 7 kts 345°
2026-05-04 18:40 48.11946 16.57287 609 ft 5 kts 346°
2026-05-04 18:41 48.11982 16.57312 609 ft 6 kts 56°
2026-05-04 18:41 48.12000 16.57382 609 ft 7 kts 72°
2026-05-04 18:41 48.12014 16.57465 609 ft 9 kts 89°
2026-05-04 18:41 48.12001 16.57564 609 ft 10 kts 103°
2026-05-04 18:42 48.11982 16.57672 609 ft 11 kts 105°
2026-05-04 18:42 48.11961 16.57787 609 ft 9 kts 106°
2026-05-04 18:42 48.11931 16.57837 609 ft 2 kts 163°
2026-05-04 18:42 48.11930 16.57837 609 ft 0 kts 164°
2026-05-04 18:43 48.11874 16.57861 609 ft 36 kts 165°
2026-05-04 18:43 48.11362 16.58078 609 ft 113 kts 165°
2026-05-04 18:43 48.10418 16.58476 715 ft 161 kts 164°
2026-05-04 18:43 48.09379 16.58918 1490 ft 158 kts 162°
2026-05-04 18:44 48.08336 16.59405 2238 ft 162 kts 162°
2026-05-04 18:44 48.07983 16.59566 2490 ft 161 kts 163°
2026-05-04 18:44 48.06057 16.60146 3369 ft 184 kts 186°
2026-05-04 18:44 48.04918 16.59241 3892 ft 201 kts 227°
2026-05-04 18:45 48.04219 16.57349 4428 ft 218 kts 238°
2026-05-04 18:45 48.03354 16.55386 4985 ft 234 kts 230°
2026-05-04 18:45 48.02498 16.53264 5636 ft 251 kts 250°
2026-05-04 18:45 48.02348 16.50589 6303 ft 271 kts 274°
2026-05-04 18:46 48.02614 16.47794 7116 ft 277 kts 274°
2026-05-04 18:46 48.02760 16.44924 7963 ft 279 kts 269°
2026-05-04 18:46 48.02750 16.42061 8797 ft 283 kts 265°
2026-05-04 18:46 48.02702 16.39013 9301 ft 300 kts 269°
2026-05-04 18:47 48.02839 16.35860 9965 ft 312 kts 274°
2026-05-04 18:47 48.03173 16.32697 10817 ft 315 kts 277°
2026-05-04 18:47 48.03583 16.29456 11670 ft 317 kts 277°
2026-05-04 18:47 48.04003 16.26217 12448 ft 321 kts 278°
2026-05-04 18:48 48.04423 16.22986 13210 ft 325 kts 278°
2026-05-04 18:48 48.04854 16.19684 13977 ft 328 kts 278°
2026-05-04 18:48 48.05293 16.16306 14705 ft 332 kts 278°
2026-05-04 18:48 48.05729 16.12940 15418 ft 335 kts 278°
2026-05-04 18:49 48.06175 16.09482 16125 ft 339 kts 278°
2026-05-04 18:49 48.06618 16.06041 16821 ft 342 kts 279°
2026-05-04 18:49 48.07070 16.02532 17478 ft 346 kts 279°
2026-05-04 18:49 48.07531 15.99020 17937 ft 356 kts 280°
2026-05-04 18:50 48.08072 15.95315 18194 ft 371 kts 281°
2026-05-04 18:50 48.08644 15.91499 18448 ft 384 kts 281°
2026-05-04 18:50 48.09235 15.87543 18722 ft 396 kts 281°
2026-05-04 18:50 48.09834 15.83503 19219 ft 401 kts 281°
2026-05-04 18:51 48.10436 15.79423 19818 ft 403 kts 281°
2026-05-04 18:51 48.11041 15.75306 20409 ft 406 kts 282°
2026-05-04 18:51 48.11637 15.71232 20963 ft 408 kts 282°
2026-05-04 18:51 48.12245 15.67065 21509 ft 411 kts 282°
2026-05-04 18:52 48.12856 15.62873 22073 ft 413 kts 282°
2026-05-04 18:52 48.13466 15.58665 22593 ft 416 kts 282°
2026-05-04 18:52 48.14079 15.54423 23130 ft 418 kts 282°
2026-05-04 18:52 48.14685 15.50215 23613 ft 421 kts 282°
2026-05-04 18:53 48.15305 15.45909 24107 ft 423 kts 282°
2026-05-04 18:53 48.15922 15.41596 24586 ft 425 kts 282°
2026-05-04 18:53 48.16536 15.37290 25015 ft 429 kts 282°
2026-05-04 18:53 48.17165 15.32879 25452 ft 431 kts 281°
2026-05-04 18:54 48.17780 15.28544 25867 ft 434 kts 281°
2026-05-04 18:54 48.18413 15.24085 26280 ft 436 kts 281°
2026-05-04 18:54 48.19040 15.19640 26654 ft 439 kts 281°
2026-05-04 18:54 48.19671 15.15147 27034 ft 442 kts 281°
2026-05-04 18:55 48.20297 15.10691 27381 ft 445 kts 281°
2026-05-04 18:55 48.21571 15.01580 28089 ft 448 kts 281°
2026-05-04 18:55 48.22201 14.97053 28381 ft 450 kts 281°
2026-05-04 18:56 48.22837 14.92463 28686 ft 451 kts 281°
2026-05-04 18:56 48.23471 14.87881 29082 ft 450 kts 281°
2026-05-04 18:56 48.24106 14.83266 29487 ft 448 kts 281°
2026-05-04 18:56 48.24725 14.78763 29845 ft 447 kts 281°
2026-05-04 18:57 48.25355 14.74155 30167 ft 447 kts 281°
2026-05-04 18:57 48.25973 14.69631 30414 ft 448 kts 281°
2026-05-04 18:57 48.26598 14.65039 30637 ft 450 kts 281°
2026-05-04 18:57 48.27219 14.60460 30875 ft 451 kts 281°
2026-05-04 18:58 48.27843 14.55847 31104 ft 451 kts 281°
2026-05-04 18:58 48.28464 14.51232 31291 ft 453 kts 281°
2026-05-04 18:58 48.29083 14.46621 31486 ft 454 kts 281°
2026-05-04 18:58 48.29707 14.41956 31701 ft 455 kts 281°
2026-05-04 18:59 48.30323 14.37339 31860 ft 456 kts 281°
2026-05-04 18:59 48.30948 14.32634 31872 ft 457 kts 280°
2026-05-04 18:59 48.32173 14.23373 31876 ft 457 kts 280°
2026-05-04 19:00 48.33402 14.14015 31877 ft 457 kts 280°
2026-05-04 19:00 48.34626 14.04639 31879 ft 458 kts 280°
2026-05-04 19:01 48.35837 13.95306 31884 ft 458 kts 280°
2026-05-04 19:01 48.37050 13.85891 31893 ft 459 kts 280°
2026-05-04 19:02 48.38249 13.76529 31898 ft 458 kts 280°
2026-05-04 19:02 48.39438 13.67168 31901 ft 458 kts 280°
2026-05-04 19:03 48.40626 13.57767 31902 ft 457 kts 279°
2026-05-04 19:03 48.41802 13.48382 31902 ft 457 kts 279°
2026-05-04 19:04 48.43010 13.39028 31902 ft 457 kts 282°
2026-05-04 19:04 48.44720 13.29813 31902 ft 458 kts 287°
2026-05-04 19:05 48.46873 13.20785 31902 ft 458 kts 286°
2026-05-04 19:05 48.48664 13.11662 31904 ft 457 kts 284°
2026-05-04 19:06 48.50434 13.02482 31911 ft 457 kts 284°
2026-05-04 19:06 48.52218 12.93337 31919 ft 456 kts 284°
2026-05-04 19:07 48.54006 12.84192 31925 ft 456 kts 284°
2026-05-04 19:07 48.55795 12.75027 31928 ft 457 kts 284°
2026-05-04 19:08 48.57586 12.65817 31928 ft 457 kts 284°
2026-05-04 19:08 48.59357 12.56667 31929 ft 457 kts 284°
2026-05-04 19:09 48.61133 12.47450 31928 ft 457 kts 284°
2026-05-04 19:09 48.62892 12.38275 31928 ft 457 kts 284°
2026-05-04 19:10 48.64642 12.29100 31929 ft 457 kts 284°
2026-05-04 19:10 48.66387 12.19906 31929 ft 457 kts 284°
2026-05-04 19:11 48.68138 12.10642 31929 ft 457 kts 284°
2026-05-04 19:11 48.69863 12.01466 31929 ft 457 kts 284°
2026-05-04 19:12 48.72458 11.87591 31928 ft 457 kts 283°
2026-05-04 19:13 48.74172 11.78351 31929 ft 457 kts 284°
2026-05-04 19:13 48.75882 11.69102 31930 ft 457 kts 284°
2026-05-04 19:14 48.77587 11.59828 31930 ft 457 kts 284°
2026-05-04 19:14 48.79282 11.50570 31930 ft 456 kts 284°
2026-05-04 19:15 48.80964 11.41332 31930 ft 456 kts 283°
2026-05-04 19:15 48.82900 11.32334 31720 ft 459 kts 292°
2026-05-04 19:15 48.84481 11.28105 31341 ft 459 kts 301°
2026-05-04 19:16 48.86436 11.24343 30968 ft 459 kts 309°
2026-05-04 19:16 48.88622 11.20868 30598 ft 456 kts 311°
2026-05-04 19:16 48.90859 11.17439 30221 ft 456 kts 312°
2026-05-04 19:16 48.93084 11.14037 29848 ft 456 kts 312°
2026-05-04 19:17 48.95297 11.10639 29475 ft 457 kts 311°
2026-05-04 19:17 48.97541 11.07177 29098 ft 458 kts 311°
2026-05-04 19:17 48.99751 11.03751 28725 ft 459 kts 311°
2026-05-04 19:17 49.01997 11.00261 28346 ft 459 kts 311°
2026-05-04 19:18 49.04195 10.96839 27974 ft 457 kts 311°
2026-05-04 19:18 49.06406 10.93390 27597 ft 454 kts 311°
2026-05-04 19:18 49.08606 10.89950 27221 ft 452 kts 311°
2026-05-04 19:18 49.10622 10.86794 26873 ft 449 kts 311°
2026-05-04 19:19 49.12795 10.83390 26496 ft 447 kts 311°
2026-05-04 19:19 49.14940 10.80023 26122 ft 444 kts 311°
2026-05-04 19:19 49.17088 10.76648 25746 ft 442 kts 311°
2026-05-04 19:19 49.19216 10.73299 25376 ft 440 kts 311°
2026-05-04 19:20 49.21330 10.69967 24995 ft 437 kts 311°
2026-05-04 19:20 49.23437 10.66636 24616 ft 434 kts 311°
2026-05-04 19:20 49.25463 10.63288 24242 ft 432 kts 310°
2026-05-04 19:20 49.27489 10.59909 23966 ft 430 kts 310°
2026-05-04 19:21 49.29541 10.56546 23951 ft 431 kts 311°
2026-05-04 19:21 49.31603 10.53221 23947 ft 431 kts 311°
2026-05-04 19:21 49.33653 10.49940 23939 ft 431 kts 311°
2026-05-04 19:21 49.35686 10.46580 23940 ft 430 kts 309°
2026-05-04 19:22 49.37601 10.43035 23945 ft 429 kts 305°
2026-05-04 19:22 49.39355 10.39377 23941 ft 428 kts 303°
2026-05-04 19:22 49.41069 10.35667 23941 ft 428 kts 303°
2026-05-04 19:22 49.42752 10.31985 23944 ft 428 kts 302°
2026-05-04 19:23 49.44452 10.28246 23941 ft 428 kts 302°
2026-05-04 19:23 49.46163 10.24484 23937 ft 428 kts 302°
2026-05-04 19:23 49.47862 10.20745 23943 ft 428 kts 302°
2026-05-04 19:23 49.49552 10.17023 23944 ft 428 kts 302°
2026-05-04 19:24 49.51236 10.13303 23943 ft 428 kts 302°
2026-05-04 19:24 49.52941 10.09531 23943 ft 428 kts 302°
2026-05-04 19:24 49.54625 10.05804 23944 ft 428 kts 302°
2026-05-04 19:24 49.56328 10.02024 23944 ft 428 kts 302°
2026-05-04 19:25 49.58019 9.98269 23943 ft 428 kts 302°
2026-05-04 19:25 49.59707 9.94516 23943 ft 428 kts 302°
2026-05-04 19:25 49.61382 9.90785 23775 ft 422 kts 302°
2026-05-04 19:25 49.63032 9.87102 23168 ft 419 kts 302°
2026-05-04 19:26 49.64684 9.83410 22456 ft 418 kts 302°
2026-05-04 19:26 49.66327 9.79734 21819 ft 415 kts 302°
2026-05-04 19:26 49.67952 9.76099 21231 ft 412 kts 302°
2026-05-04 19:26 49.69552 9.72513 20622 ft 408 kts 302°
2026-05-04 19:27 49.71157 9.68912 20018 ft 405 kts 302°
2026-05-04 19:27 49.72736 9.65361 19431 ft 402 kts 302°
2026-05-04 19:27 49.74297 9.61843 18823 ft 399 kts 302°
2026-05-04 19:27 49.75852 9.58331 18234 ft 396 kts 302°
2026-05-04 19:28 49.77393 9.54850 17660 ft 393 kts 302°
2026-05-04 19:28 49.78940 9.51353 17061 ft 390 kts 302°
2026-05-04 19:28 49.80443 9.47948 16462 ft 388 kts 302°
2026-05-04 19:28 49.81961 9.44507 15897 ft 384 kts 302°
2026-05-04 19:29 49.83464 9.41091 15280 ft 383 kts 302°
2026-05-04 19:29 49.84939 9.37701 14713 ft 379 kts 299°
2026-05-04 19:29 49.86163 9.34190 14128 ft 375 kts 291°
2026-05-04 19:29 49.87073 9.30467 13555 ft 370 kts 284°
2026-05-04 19:30 49.87816 9.26692 13001 ft 367 kts 283°
2026-05-04 19:30 49.88530 9.22891 12436 ft 364 kts 283°
2026-05-04 19:30 49.89226 9.19177 11883 ft 362 kts 283°
2026-05-04 19:30 49.89927 9.15455 11565 ft 352 kts 283°
2026-05-04 19:31 49.90596 9.11936 11311 ft 335 kts 283°
2026-05-04 19:31 49.91240 9.08544 11039 ft 318 kts 283°
2026-05-04 19:31 49.91842 9.05377 10957 ft 300 kts 283°
2026-05-04 19:31 49.92426 9.02300 10957 ft 292 kts 283°
2026-05-04 19:32 49.92992 8.99297 10757 ft 288 kts 283°
2026-05-04 19:32 49.93702 8.96430 10298 ft 293 kts 298°
2026-05-04 19:32 49.94981 8.93936 9892 ft 295 kts 317°
2026-05-04 19:32 49.96675 8.92221 9536 ft 295 kts 335°
2026-05-04 19:33 49.98642 8.91400 9172 ft 293 kts 354°
2026-05-04 19:33 50.00655 8.91315 8835 ft 291 kts
2026-05-04 19:33 50.02600 8.92035 8407 ft 287 kts 25°
2026-05-04 19:33 50.04337 8.93514 7865 ft 285 kts 31°
2026-05-04 19:34 50.06010 8.95155 7308 ft 284 kts 32°
2026-05-04 19:34 50.07634 8.96798 6775 ft 281 kts 33°
2026-05-04 19:34 50.09265 8.98465 6263 ft 278 kts 32°
2026-05-04 19:34 50.10834 9.00080 6009 ft 274 kts 32°
2026-05-04 19:35 50.12365 9.01657 5987 ft 257 kts 32°
2026-05-04 19:35 50.13792 9.03134 5980 ft 238 kts 32°
2026-05-04 19:35 50.15128 9.04520 5977 ft 223 kts 31°
2026-05-04 19:35 50.16494 9.05379 5945 ft 205 kts
2026-05-04 19:36 50.17799 9.04891 6053 ft 196 kts 326°
2026-05-04 19:36 50.18640 9.03274 6023 ft 192 kts 287°
2026-05-04 19:36 50.18651 9.01260 5933 ft 187 kts 250°
2026-05-04 19:36 50.17990 8.99525 5585 ft 187 kts 233°
2026-05-04 19:37 50.17171 8.97959 5225 ft 189 kts 231°
2026-05-04 19:37 50.16323 8.96405 4890 ft 188 kts 231°
2026-05-04 19:37 50.15476 8.94854 4561 ft 188 kts 230°
2026-05-04 19:37 50.14625 8.93299 4226 ft 187 kts 229°
2026-05-04 19:38 50.13720 8.91895 4007 ft 185 kts 224°
2026-05-04 19:38 50.12755 8.90550 4006 ft 187 kts 223°
2026-05-04 19:38 50.11848 8.89092 4002 ft 187 kts 230°
2026-05-04 19:38 50.11073 8.87467 3998 ft 186 kts 239°
2026-05-04 19:39 50.10477 8.85697 3941 ft 186 kts 247°
2026-05-04 19:39 50.10011 8.83811 3720 ft 185 kts 251°
2026-05-04 19:39 50.09590 8.81918 3472 ft 184 kts 252°
2026-05-04 19:39 50.09166 8.80058 3228 ft 183 kts 251°
2026-05-04 19:40 50.08727 8.78199 2984 ft 181 kts 251°
2026-05-04 19:40 50.08290 8.76391 2737 ft 176 kts 251°
2026-05-04 19:40 50.07945 8.74626 2534 ft 168 kts 260°
2026-05-04 19:40 50.07727 8.72843 2201 ft 168 kts 258°
2026-05-04 19:41 50.07417 8.71158 2010 ft 153 kts 254°
2026-05-04 19:41 50.07098 8.69656 1855 ft 143 kts 251°
2026-05-04 19:41 50.06768 8.68216 1670 ft 139 kts 251°
2026-05-04 19:41 50.06440 8.66803 1467 ft 139 kts 251°
2026-05-04 19:42 50.06091 8.65411 1281 ft 138 kts 249°
2026-05-04 19:42 50.05761 8.64003 1150 ft 138 kts 252°
2026-05-04 19:42 50.05447 8.62596 923 ft 137 kts 251°
2026-05-04 19:42 50.05111 8.61200 771 ft 137 kts 250°
2026-05-04 19:43 50.04779 8.59832 568 ft 136 kts 251°
2026-05-04 19:43 50.04454 8.58465 390 ft 133 kts 250°
2026-05-04 19:43 50.04167 8.57247 371 ft 87 kts 250°
2026-05-04 19:43 50.04033 8.56686 371 ft 39 kts 250°
2026-05-04 19:44 50.03987 8.56418 371 ft 19 kts 277°
2026-05-04 19:44 50.04001 8.56291 371 ft 7 kts 280°
2026-05-04 19:44 50.04004 8.56262 371 ft 3 kts 280°
2026-05-04 19:44 50.04007 8.56236 371 ft 0 kts 280°
2026-05-04 19:45 50.04008 8.56228 371 ft 0 kts 280°
2026-05-04 19:45 50.04010 8.56214 371 ft 1 kts 280°
2026-05-04 19:45 50.04013 8.56189 371 ft 2 kts 280°
2026-05-04 19:45 50.04022 8.56157 371 ft 3 kts 319°
2026-05-04 19:46 50.04034 8.56147 371 ft 0 kts 337°
2026-05-04 19:46 50.04037 8.56146 371 ft 0 kts 337°
2026-05-04 19:47 50.04037 8.56145 371 ft 0 kts 337°
2026-05-04 19:47 50.04049 8.56137 371 ft 4 kts 337°
2026-05-04 19:47 50.04088 8.56138 371 ft 7 kts 46°
2026-05-04 19:47 50.04115 8.56227 371 ft 10 kts 70°
2026-05-04 19:48 50.04141 8.56338 371 ft 11 kts 70°
2026-05-04 19:48 50.04172 8.56467 371 ft 13 kts 70°
2026-05-04 19:48 50.04204 8.56601 371 ft 11 kts 69°
2026-05-04 19:48 50.04250 8.56628 371 ft 8 kts 341°
2026-05-04 19:49 50.04299 8.56600 371 ft 3 kts 340°
2026-05-04 19:49 50.04302 8.56598 371 ft 0 kts 340°
2026-05-04 19:49 50.04303 8.56598 371 ft 0 kts 340°
2026-05-04 19:50 50.04313 8.56592 371 ft 3 kts 340°
2026-05-04 19:50 50.04356 8.56567 371 ft 9 kts 342°
2026-05-04 19:50 50.04404 8.56630 371 ft 10 kts 64°
2026-05-04 19:50 50.04431 8.56747 371 ft 12 kts 70°
2026-05-04 19:51 50.04483 8.56843 371 ft 12 kts 11°
2026-05-04 19:51 50.04569 8.56874 371 ft 13 kts 24°
2026-05-04 19:51 50.04652 8.56932 371 ft 13 kts 25°
2026-05-04 19:51 50.04716 8.56973 371 ft 4 kts
2026-05-04 19:52 50.04739 8.56942 371 ft 4 kts 289°
2026-05-04 19:52 50.04747 8.56898 371 ft 2 kts 294°
2026-05-04 19:52 50.04750 8.56886 371 ft 0 kts 294°
2026-05-04 19:52 50.04750 8.56885 371 ft 0 kts 294°